HB9KBJ-4 Weather Reports


time (UTC)temp
C
wind
direction
speed
KPH
gust
KPH
rain 1hr
cm
rain 24hr
cm
rain mn
cm
humidity
%
barometer
mb
20260505152128 15 287 1.6 6.4 0.00 0.00 0.05 65
20260505151628 15 288 3.2 6.4 0.00 0.00 0.05 65
20260505151127 15 107 3.2 12.9 0.00 0.00 0.05 64
20260505150627 15 122 1.6 9.7 0.00 0.00 0.05 63
20260505150127 16 15 4.8 14.5 0.00 0.00 0.05 61
20260505140624 17 115 1.6 8.0 0.00 0.00 0.05 57
20260505122117 18 21 3.2 11.3 0.00 0.00 0.05 54
20260505120616 18 10 1.6 8.0 0.00 0.00 0.05 53
20260505112113 18 87 3.2 14.5 0.00 0.00 0.05 54
20260505111613 18 318 1.6 6.4 0.00 0.00 0.05 57
20260505110613 17 62 1.6 6.4 0.00 0.00 0.05 60
20260505101610 14 80 3.2 12.9 0.00 0.00 0.05 67
20260505101109 14 58 3.2 9.7 0.00 0.00 0.05 69
20260505100609 13 68 3.2 8.0 0.00 0.00 0.05 69
20260505095108 13 53 1.6 6.4 0.00 0.00 0.05 71
20260505093607 12 312 1.6 6.4 0.00 0.00 0.05 77
20260505093107 12 314 1.6 6.4 0.00 0.00 0.05 79
20260505092607 12 301 0.0 4.8 0.00 0.00 0.05 79
20260505092106 11 34 0.0 1.6 0.00 0.00 0.05 79
20260505091606 11 90 1.6 6.4 0.00 0.00 0.05 80
20260505091106 11 0 0.0 0.0 0.00 0.00 0.05 79
20260505090606 11 0 0.0 0.0 0.00 0.00 0.05 79
20260505090105 11 60 0.0 3.2 0.00 0.00 0.05 81
20260505085105 11 318 0.0 1.6 0.00 0.00 0.05 81
20260505084604 10 31 0.0 1.6 0.00 0.00 0.05 80
20260505084104 11 0 0.0 0.0 0.00 0.00 0.05 81
20260505083604 10 0 0.0 0.0 0.00 0.00 0.05 81
20260505083104 10 0 0.0 0.0 0.00 0.00 0.05 82
20260505082604 10 0 0.0 0.0 0.00 0.00 0.05 82
20260505082103 10 0 0.0 0.0 0.00 0.00 0.05 83
20260505080602 9 0 0.0 0.0 0.00 0.00 0.05 85
20260505075602 9 91 0.0 3.2 0.00 0.00 0.05 86
20260505075101 9 0 0.0 0.0 0.00 0.00 0.05 86
20260505074101 9 0 0.0 0.0 0.00 0.00 0.05 85
20260505073601 8 0 0.0 0.0 0.00 0.00 0.05 85
20260505073100 8 0 0.0 0.0 0.00 0.00 0.05 85
20260505072600 8 0 0.0 0.0 0.00 0.00 0.05 85
20260505072100 8 120 0.0 3.2 0.00 0.00 0.05 85
20260505071600 8 0 0.0 0.0 0.00 0.00 0.05 84
20260505071059 8 0 0.0 0.0 0.00 0.00 0.03 85
20260505070559 8 0 0.0 0.0 0.00 0.00 0.03 84
20260505070059 8 0 0.0 0.0 0.00 0.00 0.03 84
20260505065558 8 0 0.0 0.0 0.00 0.00 0.03 84
20260505064558 8 0 0.0 0.0 0.00 0.00 0.03 83
20260505064058 8 0 0.0 0.0 0.00 0.00 0.00 83
20260505063057 8 0 0.0 0.0 0.00 0.00 0.00 84
20260505062557 8 0 0.0 0.0 0.00 0.00 0.00 83
20260505062056 8 0 0.0 0.0 0.00 0.00 0.00 83
20260505061556 8 0 0.0 0.0 0.00 0.00 0.00 83
20260505061056 8 0 0.0 0.0 0.00 0.00 0.00 84
20260505060555 8 0 0.0 0.0 0.00 0.00 0.00 83
20260505055555 8 0 0.0 0.0 0.00 0.00 0.00 83
20260505053554 8 0 0.0 0.0 0.00 0.00 0.00 82
20260505053054 7 0 0.0 0.0 0.00 0.00 0.00 83
20260505052553 7 0 0.0 0.0 0.00 0.00 0.00 82
20260505052053 7 0 0.0 0.0 0.00 0.00 0.00 82
20260505051553 7 0 0.0 0.0 0.00 0.00 0.00 82
20260505051052 8 0 0.0 0.0 0.00 0.00 0.00 82
20260505050552 7 0 0.0 0.0 0.00 0.00 0.00 82
20260505041049 7 0 0.0 0.0 0.00 0.00 0.00 81
20260505040549 7 0 0.0 0.0 0.00 0.00 0.00 81
20260505040048 7 0 0.0 0.0 0.00 0.00 0.00 81
20260505035048 7 0 0.0 0.0 0.00 0.00 0.00 80
20260505034548 7 0 0.0 0.0 0.00 0.00 0.00 80
20260505034047 7 0 0.0 0.0 0.00 0.00 0.00 80
20260505033547 7 0 0.0 0.0 0.00 0.00 0.00 80
20260505032547 7 0 0.0 0.0 0.00 0.00 0.00 80
20260505032046 7 0 0.0 0.0 0.00 0.00 0.00 79
20260505031546 7 0 0.0 0.0 0.00 0.00 0.00 80
20260505030545 7 0 0.0 0.0 0.00 0.00 0.00 80
20260505030045 7 0 0.0 0.0 0.00 0.00 0.00 80
20260505025545 7 0 0.0 0.0 0.00 0.00 0.00 80
20260505025045 8 0 0.0 0.0 0.00 0.00 0.00 80
20260505024544 8 0 0.0 0.0 0.00 0.00 0.00 80
20260505023544 8 0 0.0 0.0 0.00 0.00 0.00 80
20260505023043 7 0 0.0 0.0 0.00 0.00 0.00 80
20260505022543 8 0 0.0 0.0 0.00 0.00 0.00 80
20260505022043 8 0 0.0 0.0 0.00 0.00 0.00 80
20260505021543 8 0 0.0 0.0 0.00 0.00 0.00 80
20260505021042 8 0 0.0 0.0 0.00 0.00 0.00 80
20260505020542 8 0 0.0 0.0 0.00 0.00 0.00 80
20260505020042 8 0 0.0 0.0 0.00 0.00 0.00 80
20260505015541 8 0 0.0 0.0 0.00 0.00 0.00 80
20260505015041 8 0 0.0 0.0 0.00 0.00 0.00 81
20260505014541 8 0 0.0 0.0 0.00 0.00 0.00 81
20260505014041 8 0 0.0 0.0 0.00 0.00 0.00 81
20260505013540 8 0 0.0 0.0 0.00 0.00 0.00 80
20260505012540 8 0 0.0 0.0 0.00 0.00 0.00 82
20260505011539 8 0 0.0 0.0 0.00 0.00 0.00 82
20260505011039 8 0 0.0 0.0 0.00 0.00 0.00 80
20260505010539 8 0 0.0 0.0 0.00 0.00 0.00 80
20260505010038 8 0 0.0 0.0 0.00 0.00 0.00 81
20260505005538 8 0 0.0 0.0 0.00 0.00 0.00 81
20260505005038 8 0 0.0 0.0 0.00 0.00 0.00 81
20260505004537 8 0 0.0 0.0 0.00 0.00 0.00 81
20260505004037 8 0 0.0 0.0 0.00 0.00 0.00 81
20260505003537 8 0 0.0 0.0 0.00 0.00 0.00 81
20260505002536 8 0 0.0 0.0 0.00 0.00 0.00 80
20260505001035 8 0 0.0 0.0 0.00 0.00 0.00 80
20260505000535 8 0 0.0 0.0 0.00 0.00 0.00 81
20260505000035 8 0 0.0 0.0 0.00 0.00 0.00 79
20260504235534 8 0 0.0 0.0 0.00 0.00 0.00 79
20260504235034 8 0 0.0 0.0 0.00 0.00 0.00 78
20260504234034 8 0 0.0 0.0 0.00 0.00 0.00 77
20260504233033 8 0 0.0 0.0 0.00 0.00 0.00 77
20260504232533 8 0 0.0 0.0 0.00 0.00 0.00 78
20260504232032 8 0 0.0 0.0 0.00 0.00 0.00 77
20260504231032 9 0 0.0 0.0 0.00 0.00 0.00 77
20260504230532 9 0 0.0 0.0 0.00 0.00 0.00 77
20260504230031 9 0 0.0 0.0 0.00 0.00 0.00 77
20260504225531 9 0 0.0 0.0 0.00 0.00 0.00 78
20260504225031 9 0 0.0 0.0 0.00 0.00 0.00 78
20260504224530 9 0 0.0 0.0 0.00 0.00 0.00 79
20260504224030 9 0 0.0 0.0 0.00 0.00 0.00 79
20260504223530 9 0 0.0 0.0 0.00 0.00 0.00 79
20260504223030 9 0 0.0 0.0 0.00 0.00 0.00 79
20260504222529 9 0 0.0 0.0 0.00 0.00 0.00 79
20260504222029 9 0 0.0 0.0 0.00 0.00 0.00 78
20260504221529 9 0 0.0 0.0 0.00 0.00 0.00 78
20260504221028 9 0 0.0 0.0 0.00 0.00 0.00 78
20260504220028 10 0 0.0 0.0 0.00 0.00 0.00 78
20260504215528 10 0 0.0 0.0 0.00 0.00 0.00 78
20260504215027 9 0 0.0 0.0 0.00 0.00 0.00 78
20260504214527 9 0 0.0 0.0 0.00 0.00 0.00 78
20260504214027 10 0 0.0 0.0 0.00 0.00 0.00 78
20260504213526 9 0 0.0 0.0 0.00 0.00 0.00 78
20260504213026 10 0 0.0 0.0 0.00 0.00 0.00 77
20260504212526 10 0 0.0 0.0 0.00 0.00 0.00 78
20260504212026 10 0 0.0 0.0 0.00 0.00 0.00 78
20260504211525 10 0 0.0 0.0 0.00 0.00 0.00 78
20260504211025 10 0 0.0 0.0 0.00 0.00 0.00 79
20260504210525 10 0 0.0 0.0 0.00 0.00 0.00 79
20260504205524 10 0 0.0 0.0 0.00 0.00 0.00 79
20260504205024 10 0 0.0 0.0 0.00 0.00 0.00 79
20260504203523 11 0 0.0 0.0 0.00 0.00 0.00 80
20260504203023 11 0 0.0 0.0 0.00 0.00 0.00 79
20260504202522 11 0 0.0 0.0 0.00 0.00 0.00 79
20260504202022 11 0 0.0 0.0 0.00 0.00 0.00 80
20260504201522 11 0 0.0 0.0 0.00 0.00 0.00 80
20260504201022 11 0 0.0 0.0 0.00 0.00 0.00 79
20260504200521 11 0 0.0 0.0 0.00 0.00 0.00 79
20260504200021 11 86 0.0 3.2 0.00 0.00 0.00 80
20260504195521 11 325 0.0 1.6 0.00 0.00 0.00 79
20260504195020 11 326 0.0 1.6 0.00 0.00 0.00 79
20260504194020 11 340 0.0 3.2 0.00 0.00 0.00 78
20260504193520 11 4 0.0 1.6 0.00 0.00 0.00 78
20260504193019 11 46 1.6 4.8 0.00 0.00 0.00 78
20260504192519 11 73 0.0 3.2 0.00 0.00 0.00 79
20260504192019 11 0 0.0 0.0 0.00 0.00 0.00 77
20260504191519 11 68 1.6 3.2 0.00 0.00 0.00 78
20260504190518 11 83 0.0 3.2 0.00 0.00 0.00 77
20260504190018 11 89 0.0 3.2 0.00 0.00 0.00 77
20260504185517 11 315 0.0 3.2 0.00 0.00 0.00 76
20260504184517 11 0 0.0 0.0 0.00 0.00 0.00 75
20260504184017 11 0 0.0 0.0 0.00 0.00 0.00 75
20260504183516 12 0 0.0 0.0 0.00 0.00 0.00 75
20260504182516 12 0 0.0 0.0 0.00 0.00 0.00 74
20260504181015 12 0 0.0 0.0 0.00 0.00 0.00 73
20260504180515 12 0 0.0 0.0 0.00 0.00 0.00 73
20260504180014 12 0 0.0 0.0 0.00 0.00 0.00 73
20260504175514 12 24 0.0 1.6 0.00 0.00 0.00 72
20260504175014 12 24 0.0 3.2 0.00 0.00 0.00 73
20260504174513 12 25 0.0 3.2 0.00 0.00 0.00 73
20260504174013 12 38 0.0 3.2 0.00 0.00 0.00 73
20260504173513 12 35 1.6 4.8 0.00 0.00 0.00 73
20260504173013 12 35 1.6 8.0 0.00 0.00 0.00 73
20260504172512 12 30 0.0 4.8 0.00 0.00 0.00 73
20260504172012 13 302 0.0 1.6 0.00 0.00 0.00 72
20260504171512 13 314 0.0 3.2 0.00 0.00 0.00 72
20260504171011 13 45 1.6 3.2 0.00 0.00 0.00 71
20260504170511 13 21 1.6 8.0 0.00 0.00 0.00 71